Change the Weather History Date:

Wednesday, December 11, 2013

  Actual Average Record
Temperature  
Mean Temperature 10 °F -  
Max Temperature 20 °F 33 °F 47 °F (2011)
Min Temperature 1 °F 18 °F 1 °F (2013)
Degree Days  
Heating Degree Days 54    
Moisture  
Dew Point 5 °F    
Average Humidity 68    
Maximum Humidity 81    
Minimum Humidity 47    
Precipitation  
Precipitation 0.00 in - - ()
Sea Level Pressure  
Sea Level Pressure 30.49 in    
Wind  
Wind Speed 9 mph (NW)    
Max Wind Speed 21 mph    
Max Gust Speed -    
Visibility 10 miles    
Events Snow    
Averages and records for this station are not official NWS values.
T = Trace of Precipitation, MM = Missing Value Source: NWS Daily Summary

Daily Weather History Graph

Daily Weather History Graph

Search for Another Location

Airport or City:

Trip Planner

Search our weather history database for the weather conditions in past years. The results will help you decide how hot, cold, wet, or windy it might be!

Date:

Astronomy

Dec. 11, 2013 Rise Set
Actual Time 7:09 AM CST 4:29 PM CST
Civil Twilight 6:38 AM CST 4:59 PM CST
Nautical Twilight 6:04 AM CST 5:34 PM CST
Astronomical Twilight 5:30 AM CST 6:07 PM CST
Moon 1:03 PM CST (12/11) 1:29 AM CST (12/11)
Length of Visible Light 10h 21m
Length of Day
9h 20m
Waxing Gibbous, 72% of the Moon is Illuminated
Dec 11
Waxing Gibbous
Dec 17
Full
Dec 25
Last Quarter
Jan 1
New
Jan 7
First Quarter

Hourly Weather History & Observations

Time (CST) Temp. Windchill Dew Point Humidity Pressure Visibility Wind Dir Wind Speed Gust Speed Precip Events Conditions
12:56 AM 17.1 °F - 8.1 °F 68% 30.37 in 10.0 mi Calm Calm - 0.00 in   Scattered Clouds
1:56 AM 17.1 °F 11.7 °F 9.1 °F 71% 30.37 in 10.0 mi SE 3.5 mph - N/A   Clear
2:56 AM 18.1 °F 10.0 °F 8.1 °F 65% 30.36 in 10.0 mi SSE 5.8 mph - N/A   Scattered Clouds
3:56 AM 17.1 °F 8.7 °F 8.1 °F 68% 30.35 in 10.0 mi SSE 5.8 mph - N/A   Mostly Cloudy
4:56 AM 18.1 °F 8.9 °F 8.1 °F 65% 30.35 in 10.0 mi SSE 6.9 mph - N/A   Mostly Cloudy
5:56 AM 18.1 °F 6.3 °F 11.1 °F 74% 30.33 in 10.0 mi SSE 10.4 mph - N/A   Mostly Cloudy
6:56 AM 18.1 °F 7.9 °F 12.0 °F 77% 30.35 in 10.0 mi SSW 8.1 mph - N/A   Scattered Clouds
7:21 AM 17.6 °F 9.3 °F 12.2 °F 79% 30.28 in 10.0 mi West 5.8 mph - N/A   Overcast
7:56 AM 20.1 °F 10.3 °F 13.1 °F 74% 30.38 in 10.0 mi NW 8.1 mph - N/A   Mostly Cloudy
8:56 AM 18.1 °F 3.9 °F 12.0 °F 77% 30.43 in 6.0 mi NNE 15.0 mph - 0.00 in Snow Light Snow
9:12 AM 17.6 °F 3.2 °F 12.2 °F 79% 30.36 in 10.0 mi North 15.0 mph - 0.00 in   Mostly Cloudy
9:56 AM 19.0 °F 6.1 °F 14.0 °F 81% 30.47 in 5.0 mi North 12.7 mph - 0.00 in Snow Light Snow
10:00 AM 19.4 °F 5.5 °F 14.0 °F 80% 30.39 in 8.0 mi North 15.0 mph - 0.00 in Snow Light Snow
10:56 AM 20.1 °F 5.0 °F 13.1 °F 74% 30.50 in 10.0 mi NNW 18.4 mph - 0.00 in   Overcast
11:56 AM 19.0 °F 4.0 °F 12.0 °F 74% 30.51 in 6.0 mi NW 17.3 mph - 0.00 in Snow Light Snow
12:56 PM 19.0 °F 4.5 °F 10.0 °F 68% 30.51 in 10.0 mi NW 16.1 mph - 0.00 in Snow Light Snow
1:56 PM 20.1 °F 5.9 °F 10.0 °F 65% 30.52 in 10.0 mi NW 16.1 mph - 0.00 in Snow Light Snow
2:20 PM 19.4 °F 4.5 °F 8.6 °F 63% 30.45 in 10.0 mi NW 17.3 mph - 0.00 in   Scattered Clouds
2:56 PM 18.1 °F 1.6 °F 6.1 °F 59% 30.55 in 10.0 mi WNW 20.7 mph - 0.00 in   Partly Cloudy
3:56 PM 14.0 °F -0.8 °F -2.9 °F 47% 30.58 in 10.0 mi NW 13.8 mph - N/A   Clear
4:56 PM 10.0 °F -5.9 °F -2.9 °F 56% 30.62 in 10.0 mi NW 13.8 mph - N/A   Clear
5:56 PM 8.1 °F -7.0 °F -2.9 °F 61% 30.65 in 10.0 mi NW 11.5 mph - N/A   Clear
6:56 PM 5.0 °F -11.6 °F -4.9 °F 64% 30.66 in 10.0 mi NW 12.7 mph - N/A   Clear
7:56 PM 4.1 °F -12.0 °F -8.9 °F 55% 30.67 in 10.0 mi NW 11.5 mph - N/A   Clear
8:56 PM 3.0 °F -11.5 °F -8.9 °F 58% 30.67 in 10.0 mi NW 9.2 mph - N/A   Clear
9:56 PM 2.1 °F -13.6 °F -8.0 °F 63% 30.68 in 10.0 mi NW 10.4 mph - N/A   Clear
10:56 PM 1.0 °F -12.9 °F -8.0 °F 66% 30.69 in 10.0 mi WNW 8.1 mph - N/A   Clear
11:56 PM 2.1 °F -10.4 °F -6.0 °F 69% 30.69 in 10.0 mi West 6.9 mph - N/A   Clear